Weather History for KMER - December, 2013

Change the Weather History Date:

Thursday, December 5, 2013

  Actual Average (KMCE) Record (KMCE)
Temperature  
Mean Temperature 36 °F 46 °F  
Max Temperature 50 °F 56 °F 66 °F (2014)
Min Temperature 23 °F 36 °F 25 °F (2013)
Degree Days  
Heating Degree Days 28    
Month to date heating degree days  
Since 1 July heating degree days  
Cooling Degree Days 0    
Month to date cooling degree days  
Year to date cooling degree days  
Moisture  
Dew Point 25 °F    
Average Humidity 85    
Maximum Humidity 100    
Minimum Humidity 28    
Precipitation  
Precipitation 0.00 in 0.03 in 0.27 in (2010)
Month to date precipitation 0.14  
Year to date precipitation 11.12  
Since 1 July precipitation 2.44  
Snow  
Snow 0.00 in - - ()
Month to date snowfall  
Since 1 July snowfall  
Snow Depth -    
Sea Level Pressure  
Sea Level Pressure 30.13 in    
Wind  
Wind Speed 1 mph (NNW)    
Max Wind Speed 9 mph    
Max Gust Speed -    
Visibility 10 miles    
Events      
T = Trace of Precipitation, MM = Missing Value Source: NWS Daily Summary

Daily Weather History Graph

Daily Weather History Graph

Search for Another Location

Airport or City:

Trip Planner

Search our weather history database for the weather conditions in past years. The results will help you decide how hot, cold, wet, or windy it might be!

Date:

Astronomy

Dec. 05, 2013 Rise Set
Actual Time 7:01 AM PST 4:44 PM PST
Civil Twilight 6:32 AM PST 5:13 PM PST
Nautical Twilight 6:00 AM PST 5:45 PM PST
Astronomical Twilight 5:28 AM PST 6:17 PM PST
Moon 9:27 AM PST (12/5) 8:08 PM PST (12/5)
Length of Visible Light 10h 40m
Length of Day
9h 42m
Waxing Crescent, 11% of the Moon is Illuminated
Dec 5
Waxing Crescent
Dec 9
First Quarter
Dec 17
Full
Dec 25
Last Quarter
Jan 1
New

Hourly Weather History & Observations

Time (PST) Temp. Windchill Dew Point Humidity Pressure Visibility Wind Dir Wind Speed Gust Speed Precip Events Conditions
12:15 AM 26.6 °F - 26.6 °F 100% 30.08 in 10.0 mi Calm Calm - N/A   Clear
12:35 AM 26.6 °F - 26.6 °F 100% 30.08 in 10.0 mi Calm Calm - N/A   Clear
12:55 AM - - - N/A% 30.08 in 10.0 mi Calm Calm - N/A   Clear
1:15 AM - - - N/A% 30.08 in 10.0 mi Calm Calm - N/A   Clear
1:35 AM 24.8 °F - 24.8 °F 100% 30.07 in 10.0 mi Calm Calm - N/A   Clear
2:15 AM 23.0 °F - 23.0 °F 100% 30.08 in 10.0 mi Calm Calm - N/A   Clear
2:35 AM 23.0 °F - 23.0 °F 100% 30.08 in 10.0 mi Calm Calm - N/A   Clear
2:55 AM 23.0 °F - 23.0 °F 100% 30.08 in 10.0 mi Calm Calm - N/A   Clear
3:15 AM 23.0 °F - 23.0 °F 100% 30.08 in 10.0 mi Calm Calm - N/A   Clear
3:35 AM 23.0 °F - 23.0 °F 100% 30.08 in 10.0 mi Calm Calm - N/A   Clear
3:55 AM 23.0 °F - 23.0 °F 100% 30.08 in 10.0 mi Calm Calm - N/A   Clear
4:15 AM 23.0 °F - 23.0 °F 100% 30.09 in 10.0 mi Calm Calm - N/A   Clear
4:35 AM 23.0 °F - 23.0 °F 100% 30.09 in 10.0 mi Calm Calm - N/A   Clear
4:55 AM 23.0 °F - 23.0 °F 100% 30.09 in 10.0 mi Calm Calm - N/A   Clear
5:15 AM 23.0 °F - 23.0 °F 100% 30.09 in 10.0 mi Calm Calm - N/A   Clear
5:35 AM 23.0 °F - 23.0 °F 100% 30.10 in 10.0 mi Calm Calm - N/A   Clear
5:55 AM 23.0 °F - 23.0 °F 100% 30.10 in 10.0 mi Calm Calm - N/A   Clear
6:45 AM 26.6 °F - 26.6 °F 100% 30.12 in 10.0 mi Calm Calm - N/A   Clear
7:45 AM 28.4 °F 23.3 °F 28.4 °F 100% 30.14 in 10.0 mi Variable 4.6 mph - N/A   Clear
8:50 AM 32.0 °F 25.6 °F 30.2 °F 93% 30.16 in 10.0 mi NNW 6.9 mph - N/A   Clear
9:45 AM 37.4 °F 32.1 °F 28.4 °F 70% 30.16 in 10.0 mi NNW 6.9 mph - N/A   Clear
10:45 AM 42.8 °F 38.0 °F 24.8 °F 49% 30.16 in 10.0 mi NW 8.1 mph - N/A   Clear
11:45 AM 46.4 °F 41.9 °F 21.2 °F 37% 30.15 in 10.0 mi North 9.2 mph - N/A   Clear
12:45 PM 48.2 °F - 19.4 °F 32% 30.13 in 10.0 mi North 9.2 mph - N/A   Clear
1:45 PM 50.0 °F - 17.6 °F 28% 30.12 in 10.0 mi North 6.9 mph - N/A   Clear
2:45 PM 50.0 °F - 17.6 °F 28% 30.12 in 10.0 mi North 6.9 mph - N/A   Clear
3:45 PM 48.2 °F - 19.4 °F 32% 30.12 in 10.0 mi Calm Calm - N/A   Clear
4:45 PM 44.6 °F 41.4 °F 21.2 °F 39% 30.12 in 10.0 mi North 5.8 mph - N/A   Clear
5:45 PM 37.4 °F - 21.2 °F 52% 30.14 in 10.0 mi Calm Calm - N/A   Clear
6:45 PM 32.0 °F - 23.0 °F 69% 30.15 in 10.0 mi Calm Calm - N/A   Clear
7:45 PM 32.0 °F - 28.4 °F 87% 30.15 in 10.0 mi Calm Calm - N/A   Clear
8:15 PM 32.0 °F - 26.6 °F 80% 30.15 in 10.0 mi Calm Calm - N/A   Clear
8:35 PM 30.2 °F - 28.4 °F 93% 30.16 in 10.0 mi Calm Calm - N/A   Clear
8:45 PM 30.2 °F - 28.4 °F 93% 30.16 in 10.0 mi Calm Calm - N/A   Clear
8:55 PM 30.2 °F - 28.4 °F 93% 30.16 in 10.0 mi Calm Calm - N/A   Clear
9:15 PM 30.2 °F - 28.4 °F 93% 30.16 in 10.0 mi Calm Calm - N/A   Clear
9:35 PM 30.2 °F - 28.4 °F 93% 30.17 in 10.0 mi Calm Calm - N/A   Clear
9:55 PM 30.2 °F - 28.4 °F 93% 30.17 in 10.0 mi Calm Calm - N/A   Clear
10:15 PM 28.4 °F - 28.4 °F 100% 30.18 in 10.0 mi Calm Calm - N/A   Clear
10:35 PM 28.4 °F - 28.4 °F 100% 30.18 in 10.0 mi Calm Calm - N/A   Clear
10:55 PM 28.4 °F - 28.4 °F 100% 30.18 in 10.0 mi Calm Calm - N/A   Clear
11:15 PM 28.4 °F - 28.4 °F 100% 30.18 in 10.0 mi Calm Calm - N/A   Clear
11:35 PM 28.4 °F - 28.4 °F 100% 30.18 in 10.0 mi Calm Calm - N/A   Clear
11:55 PM 28.4 °F - 28.4 °F 100% 30.18 in 10.0 mi Calm Calm - N/A   Clear